Theta_e
302 298 299 299 299 300 301 302 301 297 296 297 296 295 295 299 300 299 300 300 299 299 299 297 297 296 294 293 291 291 290 290 290 291 292 291 291 291 291 291 291 291 291 291
297 299 295 297 298 300 301 301 299 297 296 295 295 294 293 296 298 300 300 300 300 299 298 297 296 296 295 292 291 290 290 290 291 291 291 291 290 290 290 290 290 290 290 290
296 294 294 296 296 298 295 298 297 297 296 296 295 295 300 299 299 299 300 300 300 300 299 297 296 295 295 293 291 290 290 290 290 290 291 291 291 290 290 289 289 289 289 289
292 292 294 295 294 294 297 294 295 296 295 296 295 294 295 298 298 297 299 300 300 300 299 298 297 296 295 293 290 289 289 290 290 290 291 291 291 290 290 289 289 289 289 289
292 293 294 296 293 292 296 294 295 296 295 294 296 293 294 296 298 297 298 299 299 299 299 299 298 297 296 294 291 290 289 289 290 290 291 291 291 290 290 289 289 289 288 288
290 291 290 291 292 293 292 295 295 294 294 293 296 294 294 296 298 297 297 298 298 298 298 298 298 296 295 294 292 290 289 289 290 290 290 290 290 290 290 289 289 289 288 288
292 290 290 291 292 293 294 296 298 296 294 295 295 293 294 298 297 297 297 297 297 297 298 298 297 296 295 294 293 291 290 289 290 290 290 290 290 290 290 290 289 289 289 288
293 293 290 290 291 292 293 295 297 293 302 299 294 295 296 297 297 297 296 296 296 296 297 297 297 296 295 294 293 292 290 290 289 289 290 290 290 290 289 289 289 289 288 288
292 293 289 289 289 291 294 292 294 290 288 290 294 295 296 297 296 296 296 296 296 296 296 296 296 296 296 295 294 293 291 290 289 289 289 290 289 289 289 289 289 288 288 288
296 290 290 289 289 290 292 292 293 291 290 291 298 294 294 295 295 294 294 295 295 295 296 296 296 296 295 295 294 293 292 290 289 289 289 289 290 289 289 289 288 288 288 288
288 291 289 289 287 290 289 291 291 292 295 296 295 295 292 294 293 293 294 295 295 295 294 294 295 295 295 295 294 293 292 291 289 289 289 289 289 289 289 289 288 288 288 288
291 289 287 289 288 288 288 291 292 294 292 291 293 293 295 294 294 295 295 295 294 294 294 294 294 294 294 294 294 293 292 291 290 289 288 288 288 289 289 288 288 288 288 288
291 289 287 293 290 287 285 290 294 292 292 290 291 293 294 294 293 295 295 294 294 294 293 293 293 293 293 294 294 293 293 292 291 289 289 288 289 289 289 288 288 288 287 287
294 287 291 296 294 287 286 287 292 289 288 293 294 296 293 292 291 293 294 294 294 293 293 293 292 292 292 293 293 293 292 291 291 290 289 289 288 289 289 288 288 288 287 287
289 290 286 286 291 288 286 285 290 290 291 293 295 296 294 291 290 294 295 294 293 292 292 291 291 292 291 292 293 292 292 291 290 290 289 289 288 288 288 288 288 287 287 287
283 286 282 285 290 291 288 288 287 292 293 292 293 293 292 294 294 294 293 292 291 291 290 291 291 291 291 291 292 292 291 291 290 290 289 289 288 288 288 288 287 287 286 286
286 283 286 287 289 289 290 287 289 289 285 291 291 293 292 289 291 291 291 291 291 290 290 290 290 290 291 291 291 291 291 290 289 289 288 288 287 287 287 287 287 286 286 285
283 284 284 285 284 290 293 288 288 291 290 289 288 288 289 291 290 290 290 290 289 289 289 289 290 290 290 290 290 289 289 289 288 288 287 287 287 287 287 286 286 285 285 285
284 285 285 289 282 290 290 287 287 288 290 290 290 291 289 290 289 287 288 288 288 288 288 288 288 289 289 289 289 288 288 288 288 287 287 286 286 286 285 285 285 284 284 284
285 283 288 284 290 290 288 287 288 287 293 285 290 290 288 288 288 283 287 287 287 287 286 286 286 286 287 287 286 286 286 286 286 285 285 285 284 284 284 284 284 284 284 284
282 281 288 285 286 286 286 286 289 291 294 288 290 289 289 289 289 287 286 286 285 285 285 285 285 285 285 285 284 284 284 284 284 283 283 283 283 283 283 283 283 283 283 283
285 286 284 282 285 290 287 287 290 289 288 290 291 290 289 288 286 285 285 284 283 283 283 283 283 283 283 283 282 283 282 282 282 282 282 282 282 282 282 282 282 282 282 282
289 287 286 289 290 286 287 288 288 288 288 288 289 289 290 287 285 284 283 283 282 282 282 282 282 282 281 281 281 281 281 281 281 281 281 281 281 281 281 280 280 280 279 279
282 284 285 288 283 285 287 287 288 288 288 287 286 286 286 285 283 282 281 280 280 280 280 280 280 280 280 279 279 279 279 279 279 279 279 278 278 278 277 276 276 275 275 274
285 286 284 285 286 287 287 287 287 287 286 285 284 284 284 284 282 281 279 279 279 279 278 278 278 278 278 277 277 277 277 277 276 276 275 275 275 274 274 274 273 273 272 271
284 284 289 290 289 289 286 287 286 286 284 284 284 282 281 281 281 279 278 277 277 277 276 276 276 276 275 275 275 274 274 274 274 273 273 273 272 272 272 272 272 271 271 271
Wind_Speed
2 5 4 3 1 2 0 4 4 2 0 0 3 8 13 16 22 16 16 17 21 18 12 13 12 11 11 10 8 8 8 8 6 4 1 2 3 5 6 7 8 8 9 9
5 4 1 1 3 3 3 2 2 2 1 1 4 11 9 5 11 22 21 18 18 20 18 18 16 12 12 12 11 11 10 9 7 4 2 1 2 4 6 8 8 9 10 11
5 2 2 1 5 5 4 4 2 2 2 2 4 7 4 3 3 9 18 16 14 19 22 22 19 14 12 14 13 12 10 9 7 6 5 4 2 3 5 6 7 9 10 12
6 1 2 4 4 1 4 1 2 3 3 2 2 3 4 1 3 5 8 13 12 12 23 22 20 17 12 13 15 14 12 10 9 9 7 4 3 2 4 5 6 8 10 12
2 2 3 3 2 2 3 1 3 1 2 3 2 3 6 4 3 2 4 4 7 11 17 24 23 18 12 12 16 15 14 13 12 10 8 6 4 2 3 4 5 7 9 10
3 2 3 2 2 2 4 3 3 3 3 3 3 4 5 5 6 5 6 5 3 5 11 20 20 18 16 13 17 18 17 16 14 12 10 8 6 4 3 3 4 6 7 9
1 2 1 2 4 4 2 4 3 4 3 4 1 2 8 4 4 5 4 4 3 4 8 15 21 22 19 16 17 19 19 19 17 15 13 10 8 6 4 2 3 4 5 7
6 3 4 1 1 5 4 5 5 7 3 3 4 5 6 4 5 5 5 5 5 6 8 12 16 19 18 17 16 19 21 20 19 17 16 13 11 8 5 3 2 2 4 6
5 2 0 3 2 2 4 3 4 6 2 4 3 6 6 3 4 5 8 7 5 6 7 10 15 17 18 19 18 19 22 22 22 20 19 17 13 10 7 4 2 1 3 5
6 5 2 1 0 0 2 2 3 3 3 4 4 4 5 7 9 7 8 9 7 7 7 8 11 13 16 17 17 18 21 23 22 21 20 19 16 14 11 7 5 4 4 6
4 4 1 3 5 7 1 1 1 3 4 5 2 6 7 11 10 12 14 12 11 9 5 1 8 15 18 20 20 19 22 23 24 23 22 21 20 18 15 11 9 7 6 7
4 5 4 5 1 1 2 5 5 4 6 2 3 6 3 6 13 23 19 15 13 7 3 7 6 11 19 23 24 22 20 22 23 23 23 23 22 19 18 13 11 10 9 9
6 1 3 5 3 3 4 6 3 4 3 5 6 5 2 7 11 20 21 16 12 7 5 6 7 7 13 20 25 24 22 21 21 23 24 24 23 22 20 16 15 14 12 11
3 3 6 8 5 5 5 5 7 6 4 5 8 3 5 8 8 14 18 14 11 6 6 8 8 6 9 15 20 24 23 22 20 22 24 25 24 22 19 18 18 17 16 14
4 6 3 2 3 4 5 5 12 10 8 7 6 17 10 9 9 17 17 13 10 7 7 7 7 6 6 10 15 19 21 21 21 22 23 24 22 21 20 19 19 20 19 17
2 2 2 3 2 2 4 5 8 16 12 14 13 18 7 8 13 12 16 14 11 9 6 6 5 4 4 7 11 15 18 20 20 21 21 21 22 21 21 20 21 21 21 20
6 6 3 4 1 2 9 12 17 9 6 12 13 15 5 4 9 16 12 8 6 5 5 4 4 5 5 6 8 10 14 17 18 18 20 22 22 21 21 21 22 22 23 22
6 5 2 3 2 3 5 1 8 18 6 17 8 5 8 10 14 12 7 9 10 9 8 7 6 5 5 6 9 12 15 16 20 20 21 21 21 22 23 23 24 24 24 24
3 4 2 5 4 7 4 6 9 10 12 21 21 22 12 20 15 5 8 10 11 12 11 10 8 6 5 4 5 8 13 16 18 19 19 19 20 21 21 21 21 22 23 24
2 4 3 3 6 11 5 3 10 7 12 6 24 18 16 23 6 5 17 15 15 13 11 9 8 6 5 5 6 8 10 12 13 14 14 15 15 16 17 18 19 21 23 24
3 1 7 4 4 9 5 9 12 6 6 1 9 16 25 9 8 24 23 19 15 13 10 8 7 6 5 5 5 6 7 9 9 9 10 11 13 14 16 17 20 22 24 26
9 10 4 3 1 13 12 7 10 4 6 7 9 16 23 21 24 26 22 19 14 11 9 8 7 6 5 5 5 6 6 6 7 8 11 13 15 16 18 20 22 23 25 27
4 7 7 10 7 2 26 2 10 8 13 11 14 17 25 27 26 23 20 16 13 10 8 6 6 5 4 5 5 5 6 7 9 10 13 15 17 18 20 22 23 24 24 26
4 5 3 3 3 3 21 10 10 9 13 15 16 19 22 25 22 19 16 13 10 8 7 6 5 5 4 4 5 7 8 10 12 13 15 16 17 18 19 19 20 21 21 21
4 11 6 2 1 5 12 15 15 15 16 18 18 18 17 17 17 15 14 12 10 8 7 5 3 3 4 6 8 10 11 12 13 15 16 16 17 18 18 18 19 20 19 20
6 6 5 5 11 5 4 21 19 19 20 19 19 19 16 13 14 13 12 11 9 7 5 3 3 4 6 7 9 11 12 13 14 15 16 17 18 19 21 23 23 20 23 23
Wind_Direction
100 89 184 170 118 123 143 128 129 108 349 334 247 270 271 263 222 220 223 218 218 230 250 248 248 251 246 241 227 210 199 193 193 195 157 55 53 55 48 50 51 51 51 50
45 152 284 19 47 86 71 114 90 82 137 63 334 296 283 202 213 218 220 220 223 217 221 230 234 244 249 235 224 217 207 208 209 216 172 112 79 66 59 57 54 53 50 49
137 152 327 89 56 101 54 131 117 147 357 277 329 317 334 13 114 224 229 229 224 221 223 225 228 239 253 238 224 221 215 213 203 197 191 176 127 74 67 64 59 57 52 48
84 305 104 98 91 39 154 134 114 90 75 193 115 252 305 187 66 67 179 206 219 228 225 231 232 239 255 245 225 221 219 215 208 202 205 218 185 110 83 73 64 58 52 48
154 64 75 96 103 3 140 80 97 86 98 74 307 97 266 146 96 126 177 196 231 230 238 230 235 243 250 248 229 225 220 216 212 210 215 211 183 154 123 96 82 69 54 46
98 63 60 112 95 36 133 89 51 53 83 39 233 141 272 197 182 172 143 124 149 217 235 232 235 230 234 244 228 223 220 219 215 213 213 208 196 185 156 121 83 64 54 42
42 16 34 99 92 4 80 91 20 359 10 217 291 73 238 211 212 183 185 188 200 213 209 219 218 220 227 236 233 223 221 219 217 216 217 214 209 200 186 139 88 62 45 33
152 247 172 340 73 169 176 151 156 193 189 210 5 228 259 216 162 141 133 126 133 172 192 221 229 230 236 241 243 234 224 218 218 217 218 218 215 213 205 179 129 49 31 20
130 74 11 58 16 72 195 187 142 103 46 57 218 276 317 183 175 124 130 140 139 153 176 207 222 236 243 243 249 244 234 224 219 218 218 221 220 221 219 217 232 339 3 8
188 87 15 339 21 337 148 228 95 359 127 253 276 267 225 213 204 168 164 165 149 145 167 185 219 237 247 251 252 249 238 235 230 222 223 224 224 224 226 229 247 279 323 343
137 99 238 45 208 171 132 185 39 124 148 169 198 258 215 205 179 177 176 169 158 146 132 240 241 243 250 254 251 250 246 238 232 227 226 226 225 226 230 233 246 265 294 321
205 116 143 212 179 345 194 204 170 135 226 214 153 271 278 194 176 170 173 173 172 182 281 308 279 242 240 246 250 252 253 247 240 237 232 231 230 231 235 239 249 263 278 298
193 270 74 354 350 352 212 195 191 129 96 202 145 254 161 131 146 179 180 186 192 205 273 283 284 268 242 240 244 250 254 252 247 238 233 232 234 235 239 243 250 259 268 282
144 111 161 188 190 130 188 209 179 137 132 181 220 230 210 209 195 194 193 195 190 218 251 261 262 274 250 235 238 246 246 253 253 244 240 237 236 241 246 249 252 259 265 276
127 189 136 264 157 125 180 173 188 197 192 183 204 224 217 210 196 202 197 188 195 213 233 246 260 272 257 238 230 238 244 246 248 247 242 242 243 244 246 250 256 260 263 270
0 208 104 329 227 195 264 218 203 220 231 259 263 267 214 221 182 165 172 176 182 184 219 233 239 237 242 230 224 228 236 238 241 249 249 246 243 246 252 255 257 259 260 266
142 137 117 253 61 118 293 200 194 197 199 205 220 240 140 145 182 175 172 186 191 188 201 209 188 177 178 184 202 216 233 234 235 239 243 241 243 246 249 252 254 254 255 261
139 117 96 160 28 245 248 213 197 208 221 219 262 238 193 180 155 159 170 177 167 167 173 168 171 166 162 171 186 197 213 219 226 228 231 234 239 242 245 248 250 250 254 262
70 131 130 152 201 307 228 190 159 173 250 215 220 231 152 142 138 135 162 170 166 170 166 164 163 161 166 184 192 206 212 218 226 231 235 237 239 243 247 250 251 256 261 266
63 61 126 138 179 213 242 180 149 118 273 229 206 217 168 157 189 200 166 167 162 167 166 167 168 176 180 181 192 207 208 212 219 225 233 239 244 248 254 257 262 267 273 278
127 57 199 183 224 282 219 163 150 130 251 109 196 197 168 185 218 158 167 158 165 171 176 177 182 194 191 197 202 205 202 212 222 232 246 254 260 266 272 276 279 281 283 285
158 156 181 106 153 262 152 116 170 175 105 130 148 171 167 151 143 150 156 155 165 173 167 173 181 183 181 188 202 214 221 236 249 261 271 276 281 284 285 286 288 290 292 293
202 183 177 188 208 197 173 130 179 152 148 137 138 151 161 150 150 155 155 161 169 178 183 186 192 194 201 218 233 242 252 263 270 277 282 287 290 293 295 296 297 298 298 299
258 180 167 115 278 211 179 146 164 168 162 150 145 148 158 152 154 154 156 160 173 181 190 195 204 226 244 261 279 290 295 297 298 298 298 297 297 298 299 302 305 306 307 305
190 147 158 271 170 116 195 212 179 164 160 159 151 152 155 159 159 168 166 172 178 181 183 192 212 252 283 300 309 311 310 310 310 310 311 311 311 311 311 311 312 310 310 309
192 166 173 211 186 154 167 197 187 177 169 168 168 158 162 178 178 182 175 172 171 176 179 204 251 286 302 311 316 319 320 321 321 320 319 318 317 317 316 313 309 308 309 307